Starlink 5646

operational
NORAD ID: 55461 Int'l Des: 2023-015 Owner: SPXS Country: US Constellation: starlink
LEOCIRCULAR

Über Starlink 5646

Beschreibung wird geladen...

Live-Position

3D-Globus wird geladen...

Nächste Überflüge

Höhenverlauf

Altitude vs Time

uPlot chart will show altitude changes over time

Zweizeiliger Elementsatz

1 55461U 23015N 25350.53717535 .00000956 00000-0 85810-4 0 9999
2 55461 43.0046 57.9943 0001380 262.4442 97.6243 15.02532602158240
Epoch: 16. Dez. 2025 • Age: 19 hours

Aktueller Status

Höhe 564.7 km
Geschwindigkeit 7.58 km/s
Subsatellitenpunkt -25.39°S, 66.86°E
Startdatum 2. Feb. 2023
Alter 2.8 years
Typ internet

Technische Details

Klassifizierung Payload
Masse 305.00 kg
Trockenmasse 290.00 kg
Gesamtmasse 305.00 kg
Länge 0.20 m
Durchmesser 2.80 m
Spannweite 9.00 m
Form Box + pan
Hersteller SPXS
Bus-Typ Starlink
Phasenstatus In Orbit
Besitzer/Staat SPXS/US

Große Konstellationen

Loading constellations...